When you browse on this site, cookies collect data to enhance your experience and personalize the content and advertising you see.
Visit our Privacy Policy to learn more. By continuing to use the site, you agree to this use of cookies and data.
  • In Austria
  • List of Countries
  • For 7 days
  • Water Temperature
  • Satellite Maps
  • Weather Map
  • News
  • Weather Widgets
  • user-avatar
    Login

    Hourly Weather Wien

    Today, 24 March, Sunday

    Time Temperature Precipitation Wind Pressure Humidity
    00:00 +12°C° 0 mm 1 mps 749 mmHg 69%
    01:00 +11°C° 0 mm 1 mps 749 mmHg 68%
    02:00 +11°C° 0 mm 1 mps 749 mmHg 69%
    03:00 +11°C° 0 mm 1 mps 749 mmHg 70%
    04:00 +10°C° 0 mm 1 mps 749 mmHg 71%
    05:00 +10°C° 0 mm 1 mps 749 mmHg 72%
    06:00 +9°C° 0 mm 2 mps 749 mmHg 73%
    07:00 +9°C° 0 mm 2 mps 749 mmHg 71%
    08:00 +12°C° 0 mm 2 mps 748 mmHg 68%
    09:00 +14°C° 0 mm 2 mps 748 mmHg 65%
    10:00 +15°C° 0 mm 2 mps 748 mmHg 62%
    11:00 +16°C° 0 mm 2 mps 747 mmHg 58%
    12:00 +19°C° 0 mm 1 mps 747 mmHg 54%
    13:00 +20°C° 0 mm 1 mps 746 mmHg 50%
    14:00 +20°C° 0 mm 1 mps 746 mmHg 49%
    15:00 +20°C° 0 mm 1 mps 745 mmHg 49%
    16:00 +20°C° 0 mm 1 mps 745 mmHg 48%
    17:00 +19°C° 0 mm 1 mps 744 mmHg 54%
    18:00 +16°C° 0 mm 1 mps 744 mmHg 59%
    19:00 +15°C° 0 mm 2 mps 744 mmHg 65%
    20:00 +14°C° 0 mm 2 mps 744 mmHg 67%
    21:00 +13°C° 0 mm 2 mps 744 mmHg 70%
    22:00 +13°C° 0 mm 2 mps 744 mmHg 72%
    23:00 +12°C° 0 mm 2 mps 744 mmHg 74%

    Tomorrow, 25 March, Monday

    Time Temperature Precipitation Wind Pressure Humidity
    00:00 +12°C° 0 mm 2 mps 744 mmHg 77%
    01:00 +12°C° 0 mm 2 mps 744 mmHg 80%
    02:00 +10°C° 0.2 mm 2 mps 743 mmHg 80%
    03:00 +10°C° 0.2 mm 3 mps 743 mmHg 81%
    04:00 +10°C° 0.2 mm 3 mps 743 mmHg 82%
    05:00 +10°C° 0.1 mm 4 mps 743 mmHg 80%
    06:00 +8°C° 0.1 mm 4 mps 743 mmHg 79%
    07:00 +8°C° 0.1 mm 4 mps 743 mmHg 78%
    08:00 +9°C° 0 mm 5 mps 743 mmHg 70%
    09:00 +9°C° 0 mm 5 mps 742 mmHg 62%
    10:00 +10°C° 0 mm 6 mps 742 mmHg 55%
    11:00 +11°C° 0 mm 7 mps 742 mmHg 49%
    12:00 +11°C° 0 mm 7 mps 742 mmHg 44%
    13:00 +12°C° 0 mm 8 mps 742 mmHg 38%
    14:00 +11°C° 0 mm 8 mps 742 mmHg 40%
    15:00 +10°C° 0 mm 8 mps 742 mmHg 42%
    16:00 +10°C° 0 mm 9 mps 742 mmHg 44%
    17:00 +9°C° 0 mm 8 mps 742 mmHg 46%
    18:00 +6°C° 0 mm 7 mps 743 mmHg 48%
    19:00 +5°C° 0 mm 6 mps 743 mmHg 51%
    20:00 +6°C° 0 mm 5 mps 744 mmHg 52%
    21:00 +6°C° 0 mm 5 mps 745 mmHg 52%
    22:00 +5°C° 0 mm 4 mps 745 mmHg 53%
    23:00 +5°C° 0 mm 4 mps 746 mmHg 56%

    Day after tomorrow, 26 March, Tuesday

    Time Temperature Precipitation Wind Pressure Humidity
    00:00 +5°C° 0 mm 5 mps 746 mmHg 59%
    01:00 +3°C° 0 mm 5 mps 747 mmHg 61%
    02:00 +3°C° 0 mm 5 mps 747 mmHg 64%
    03:00 +2°C° 0 mm 5 mps 748 mmHg 67%
    04:00 +2°C° 0 mm 5 mps 748 mmHg 69%
    05:00 +2°C° 0 mm 5 mps 748 mmHg 70%
    06:00 +1°C° 0 mm 5 mps 749 mmHg 72%
    07:00 +1°C° 0 mm 5 mps 749 mmHg 73%
    08:00 +3°C° 0 mm 6 mps 749 mmHg 68%
    09:00 +4°C° 0 mm 6 mps 750 mmHg 63%
    10:00 +5°C° 0 mm 6 mps 750 mmHg 59%
    11:00 +7°C° 0 mm 6 mps 750 mmHg 54%
    12:00 +8°C° 0 mm 6 mps 749 mmHg 49%
    13:00 +9°C° 0 mm 6 mps 749 mmHg 44%
    14:00 +9°C° 0 mm 6 mps 749 mmHg 42%
    15:00 +10°C° 0 mm 6 mps 749 mmHg 41%
    16:00 +10°C° 0 mm 5 mps 748 mmHg 39%
    17:00 +9°C° 0 mm 5 mps 749 mmHg 43%
    18:00 +8°C° 0 mm 4 mps 749 mmHg 47%
    19:00 +7°C° 0 mm 4 mps 750 mmHg 51%
    20:00 +6°C° 0 mm 4 mps 750 mmHg 55%
    21:00 +5°C° 0 mm 4 mps 751 mmHg 60%
    22:00 +5°C° 0 mm 4 mps 751 mmHg 64%
    23:00 +4°C° 0 mm 4 mps 751 mmHg 64%

    27 March, Wednesday

    Time Temperature Precipitation Wind Pressure Humidity
    00:00 +4°C° 0 mm 4 mps 751 mmHg 65%
    01:00 +3°C° 0 mm 4 mps 751 mmHg 65%
    02:00 +3°C° 0 mm 4 mps 751 mmHg 66%
    03:00 +3°C° 0 mm 4 mps 751 mmHg 67%
    04:00 +3°C° 0 mm 4 mps 751 mmHg 68%
    05:00 +3°C° 0 mm 4 mps 751 mmHg 69%
    06:00 +3°C° 0 mm 4 mps 752 mmHg 70%
    07:00 +3°C° 0 mm 4 mps 752 mmHg 71%
    08:00 +4°C° 0 mm 4 mps 752 mmHg 67%
    09:00 +5°C° 0 mm 4 mps 752 mmHg 63%
    10:00 +6°C° 0 mm 4 mps 753 mmHg 60%
    11:00 +7°C° 0 mm 4 mps 752 mmHg 57%
    12:00 +7°C° 0 mm 4 mps 752 mmHg 54%
    13:00 +8°C° 0 mm 4 mps 752 mmHg 51%
    14:00 +8°C° 0 mm 4 mps 752 mmHg 51%
    15:00 +10°C° 0 mm 4 mps 752 mmHg 51%
    16:00 +10°C° 0 mm 4 mps 752 mmHg 51%
    17:00 +8°C° 0 mm 4 mps 752 mmHg 56%
    18:00 +8°C° 0 mm 3 mps 752 mmHg 62%
    19:00 +7°C° 0 mm 3 mps 752 mmHg 67%
    20:00 +5°C° 0 mm 3 mps 753 mmHg 69%
    21:00 +6°C° 0 mm 2 mps 753 mmHg 71%
    22:00 +5°C° 0 mm 2 mps 753 mmHg 73%
    23:00 +5°C° 0 mm 2 mps 753 mmHg 75%

    28 March, Thursday

    Time Temperature Precipitation Wind Pressure Humidity
    00:00 +5°C° 0 mm 2 mps 753 mmHg 76%
    01:00 +5°C° 0 mm 2 mps 754 mmHg 78%
    02:00 +4°C° 0 mm 2 mps 753 mmHg 79%
    03:00 +4°C° 0 mm 2 mps 753 mmHg 80%
    04:00 +4°C° 0 mm 2 mps 753 mmHg 81%
    05:00 +5°C° 0 mm 2 mps 753 mmHg 80%
    06:00 +5°C° 0 mm 2 mps 754 mmHg 78%
    07:00 +5°C° 0 mm 2 mps 754 mmHg 76%
    08:00 +7°C° 0 mm 2 mps 754 mmHg 70%
    09:00 +9°C° 0 mm 2 mps 754 mmHg 63%
    10:00 +10°C° 0 mm 2 mps 754 mmHg 57%
    11:00 +12°C° 0 mm 2 mps 754 mmHg 54%
    12:00 +13°C° 0 mm 2 mps 754 mmHg 51%
    13:00 +14°C° 0 mm 2 mps 754 mmHg 48%
    14:00 +14°C° 0.1 mm 2 mps 754 mmHg 49%
    15:00 +14°C° 0.1 mm 2 mps 753 mmHg 51%
    16:00 +14°C° 0.1 mm 2 mps 753 mmHg 53%
    17:00 +13°C° 0.2 mm 2 mps 754 mmHg 58%
    18:00 +11°C° 0.2 mm 1 mps 754 mmHg 64%
    19:00 +10°C° 0.2 mm 1 mps 754 mmHg 70%
    20:00 +10°C° 0.1 mm 1 mps 754 mmHg 74%
    21:00 +9°C° 0.1 mm 1 mps 755 mmHg 78%
    22:00 +9°C° 0.1 mm 1 mps 755 mmHg 82%
    23:00 +8°C° 0 mm 1 mps 755 mmHg 83%

    29 March, Friday

    Time Temperature Precipitation Wind Pressure Humidity
    00:00 +8°C° 0 mm 1 mps 755 mmHg 85%
    01:00 +7°C° 0 mm 1 mps 755 mmHg 87%
    02:00 +7°C° 0 mm 1 mps 755 mmHg 88%
    03:00 +7°C° 0 mm 1 mps 755 mmHg 89%
    04:00 +6°C° 0 mm 1 mps 755 mmHg 89%
    05:00 +7°C° 0 mm 1 mps 755 mmHg 88%
    06:00 +7°C° 0 mm 1 mps 756 mmHg 87%
    07:00 +7°C° 0 mm 1 mps 756 mmHg 86%
    08:00 +9°C° 0 mm 1 mps 756 mmHg 79%
    09:00 +11°C° 0 mm 1 mps 755 mmHg 72%
    10:00 +13°C° 0 mm 1 mps 755 mmHg 65%
    11:00 +14°C° 0 mm 1 mps 755 mmHg 58%
    12:00 +15°C° 0 mm 1 mps 754 mmHg 52%
    13:00 +15°C° 0 mm 0 mps 754 mmHg 46%
    14:00 +16°C° 0 mm 1 mps 754 mmHg 45%
    15:00 +16°C° 0 mm 1 mps 753 mmHg 43%
    16:00 +16°C° 0 mm 1 mps 753 mmHg 41%
    17:00 +15°C° 0 mm 1 mps 753 mmHg 46%
    18:00 +13°C° 0 mm 1 mps 753 mmHg 50%
    19:00 +11°C° 0 mm 0 mps 753 mmHg 55%
    20:00 +10°C° 0 mm 0 mps 753 mmHg 57%
    21:00 +10°C° 0 mm 0 mps 753 mmHg 59%
    22:00 +9°C° 0 mm 0 mps 753 mmHg 61%
    23:00 +9°C° 0 mm 0 mps 753 mmHg 63%
    Show more